Regional Weather Roundup
Issued by NWS

Home | Current Version | Previous Version | Graphics & Text | Print | Product List | Glossary On
Versions: 1 2 3 4 5 6 7 8 9 10 11 12 13 14 15 16 17 18 19 20 21 22 23 24 25 26 27 28 29 30 31 32 33 34 35 36 37 38 39 40 41 42 43 44 45 46 47 48 49 50
000
ASUS43 KMPX 170401
RWRMN
WEATHER ROUNDUP FOR MINNESOTA
NATIONAL WEATHER SERVICE TWIN CITIES/CHANHASSEN MN
1000 PM CST TUE JAN 16 2018


NOTE: "FAIR" INDICATES FEW OR NO CLOUDS BELOW 12,000 FEET WITH NO
SIGNIFICANT WEATHER AND/OR OBSTRUCTIONS TO VISIBILITY. N/A MEANS
CURRENT SKY AND/OR WEATHER CONDITIONS ARE NOT AVAILABLE.

MNZ060>063-068>070-170500-
   Twin Cities Metro

CITY           SKY/WX    TMP DP  RH WIND       PRES   REMARKS
TWIN CITIES    FAIR       1  -3  83 W8        30.55F WCI -13
ST PAUL        FAIR       0  -4  83 W3        30.58S
CRYSTAL        FAIR       0  -6  76 SW6       30.53F WCI -12
BLAINE         FAIR       1  -2  85 SW6       30.52F WCI -10
LAKEVILLE      FAIR      -2  -6  84 W3        30.54F
EDEN PRAIRIE   FAIR      -2  -6  83 SW8       30.54F WCI -17
SOUTH ST PAUL  FAIR       1  -4  78 W3        30.55F
LAKE ELMO      FAIR       1  -2  85 SW5       30.55S WCI  -8
$$
MNZ001>005-007-008-013>017-022>024-027-028-170500-
   Northwest Minnesota

CITY           SKY/WX    TMP DP  RH WIND       PRES   REMARKS
BEMIDJI        FAIR       3  -8  59 SW6       30.32F WCI  -8
HALLOCK        FAIR       1  -2  85 S17       30.25F WCI -19
ROSEAU         FAIR       3  -2  78 SW14      30.24F WCI -15
WARROAD        FAIR       3  -6  66 SW16G24   30.23F WCI -16
CROOKSTON      FAIR       3  -2  78 S20       30.35F WCI -18
FOSSTON        FAIR       0  -8  71 S16       30.34F WCI -21
DETROIT LAKES  FAIR       3  -2  78 S9        30.39F WCI -11
MOORHEAD       FAIR       1  -6  71 S12       30.42F WCI -15
PARK RAPIDS    FAIR       2  -5  72 SW8       30.36F WCI -12
MAHNOMEN       FAIR       0  -6  75 S14       30.36F WCI -18
$$
MNZ006-009>011-018-025>026-170500-
   North Central Minnesota

CITY           SKY/WX    TMP DP  RH WIND       PRES   REMARKS
BAUDETTE       FAIR       4  -7  60 SW14      30.23F WCI -14
FLAG ISLAND    FAIR       3  -6  66 SW18      30.17F WCI -17
INTL FALLS     FAIR       7  -8  50 SW14      30.25F WCI -10
WASKISH        FAIR       5  -8  56 SW10      30.30F WCI -10
BIG FORK       FAIR       7  -4  61 SW7       30.30F WCI  -5
LONGVILLE      FAIR       3  -6  66 SW7       30.37F WCI  -9
GRAND RAPIDS   FAIR       6  -4  63 VRB6      30.36F WCI  -4
CRANE LAKE     FAIR       7  -4  61 SW3       30.30F
ORR            FAIR       7  -2  66 SW5       30.25F WCI  -2
COOK           MOCLDY     7   0  72 SW8       30.29F WCI  -6
WALKER         FAIR       3  -9  57 SW6       30.35F WCI  -8
$$
MNZ012-019>021-037-170500-
   Northeast Minnesota

CITY           SKY/WX    TMP DP  RH WIND       PRES   REMARKS
DULUTH         CLOUDY     4  -2  76 W14       30.35F WCI -14
ELY            MOCLDY     5   0  78 SW8       30.28F WCI  -8
HIBBING        MOCLDY     4  -2  76 SW5       30.32F WCI  -5
EVELETH        FAIR       4  -3  69 SW7       30.33F WCI  -8
DULUTH HARBOR  MOCLDY     7   0  72 SW13      30.43F WCI  -9
TWO HARBORS    MOCLDY    10   1  67 SW12      30.34F WCI  -4
SILVER BAY     CLOUDY     9   1  72 SW5       30.32F WCI   0
GRAND MARAIS     N/A     15   5  64 W12G24    30.33F WCI   2
G MARAIS ARPRT CLOUDY     7  -4  61 SW5       30.20F WCI  -2
$$
MNZ029>031-032-039>041-046>048-054>057-064-170500-
   West Central Minnesota

CITY           SKY/WX    TMP DP  RH WIND       PRES   REMARKS
FERGUS FALLS   FAIR       1  -2  85 S9        30.48F WCI -14
WHEATON        CLOUDY     3  -2  78 S9        30.46F WCI -11
MORRIS         CLOUDY     0  -4  85 S8        30.45F WCI -15
ALEXANDRIA     FAIR       1  -4  79 S9        30.42F WCI -14
ELBOW LAKE     FAIR       0  -4  82 S8        30.44F FOG     WCI -14
WADENA         FAIR       0  -6  78 S6        30.39F WCI -12
GLENWOOD       FAIR      -2  -6  84 SW7       30.45F WCI -16
APPLETON       CLOUDY     3  -2  78 S6        30.49S WCI  -8
BENSON         CLOUDY    -2  -6  84 SW6       30.50S WCI -14
ORTONVILLE     CLOUDY     1  -4  78 S5        30.46F WCI  -8
MADISON        CLOUDY     1  -4  78 S6        30.49F WCI -10
WILLMAR        FAIR       0  -6  78 CALM      30.52S
$$
MNZ033>034-036-042>043-049>051-058-059-170500-
   Central Minnesota

CITY           SKY/WX    TMP DP  RH WIND       PRES   REMARKS
ST CLOUD       FAIR      -5  -9  83 S3        30.50F
SAUK CENTRE      N/A     -1  -6  82 S7        30.45F WCI -15
PAYNESVILLE    FAIR       0  -4  86 SW6       30.48F WCI -12
AITKIN         FAIR       3  -6  66 SW6       30.40F WCI  -8
PINE RIVER     FAIR       1  -6  71 CALM      30.41F
BRAINERD       FAIR       2  -6  69 SW6       30.43F WCI  -9
STAPLES        FAIR       1  -6  71 SW7       30.41F WCI -11
LONG PRAIRIE   FAIR       0  -6  78 S8        30.44F WCI -15
LITTLE FALLS   FAIR      -2 -11  65 S3        30.46F
LITCHFIELD     FAIR       0  -6  78 CALM      30.51F
BUFFALO        FAIR      -1  -5  83 CALM      30.53F
MAPLE LAKE     FAIR       0  -4  85 MISG      30.52F
HUTCHINSON     FAIR      -2  -5  84 S3        30.53S
$$
MNZ037-044-045-052-053-170500-
   East Central Minnesota

CITY           SKY/WX    TMP DP  RH WIND       PRES   REMARKS
PRINCETON      FAIR       0  -6  78 SW3       30.49F
MORA           FAIR       1  -6  71 SW5       30.49F WCI  -8
CAMBRIDGE        N/A      0  -9  65 S5        30.50F WCI -10
RUSH CITY      FAIR      -1  -5  81 SW5       30.50F WCI -11
MOOSE LAKE     FAIR       1  -4  78 SW3       30.42F
HINCKLEY       FAIR       0  -4  85 SW5       30.47S WCI -10
CLOQUET        FAIR       5  -4  66 SW9       30.37F WCI  -9
MCGREGOR       FAIR       5   0  78 SW7       30.40F WCI  -7
$$
MNZ071>073-080-081-089-090-097-098-170500-
   Southwest Minnesota

CITY           SKY/WX    TMP DP  RH WIND       PRES   REMARKS
MONTEVIDEO     CLOUDY     1  -2  85 SW6       30.51S WCI -10
GRANITE FALLS  CLOUDY     1  -3  82 S10       30.53S WCI -15
CANBY          CLOUDY     6  -2  70 SW10      30.48F WCI  -9
MARSHALL       CLOUDY    -1  -4  87 S6        30.50F WCI -13
REDWOOD FALLS  CLOUDY     0  -4  83 SW8       30.52F WCI -14
OLIVIA         CLOUDY     0  -4  85 SW7       30.51F WCI -13
PIPESTONE      CLOUDY    -2  -8  78 SW7       30.49F WCI -16
WINDOM         CLOUDY     0 -13  55 SW8       30.51F WCI -15
WORTHINGTON    CLEAR     -1  -5  82 SW8       30.52F WCI -15
JACKSON        CLOUDY     1  -4  78 SW7       30.52F WCI -11
SLAYTON        CLOUDY    -1  -4  83 SW7       30.51F WCI -14
$$
MNZ065>067-074>077-082>085-091>093-170500-
   South Central Minnesota

CITY           SKY/WX    TMP DP  RH WIND       PRES   REMARKS
MANKATO        FAIR      -3  -7  82 S5        30.56F WCI -13
NEW ULM        CLOUDY    -2  -8  78 SW5       30.54F WCI -12
ST JAMES       CLOUDY    -2  -6  84 S5        30.56F WCI -12
FAIRMONT       CLOUDY     0  -4  83 W6        30.56F WCI -12
FARIBAULT      FAIR      -6  -9  84 CALM      30.54F
OWATONNA       FAIR      -6  -9  84 S3        30.55S
WASECA         FAIR      -4  -8  84 SW5       30.57F FOG     WCI -15
ALBERT LEA     FAIR      -2  -8  78 W5        30.55S WCI -12
$$
MNZ078>079-086>088-094>096-170500-
   Southeast Minnesota

CITY           SKY/WX    TMP DP  RH WIND       PRES   REMARKS
ROCHESTER      FAIR      -4  -6  91 W9        30.52F WCI -20
RED WING       FAIR      -2  -9  71 CALM      30.56F
STANTON        FAIR      -3  -7  81 SW8       30.54F WCI -18
DODGE CENTER   FAIR      -6  -9  84 SW9       30.51F WCI -22
WINONA         FAIR       1  -4  78 CALM      30.57F
AUSTIN         FAIR      -4  -8  84 CALM      30.54F
PRESTON        FAIR      -4  -9  81 W7        30.53F WCI -18
$$
ABBREVIATIONS USED IN REMARKS
   TC - TEMPERATURES IN CELSIUS
  WCI - WIND CHILL INDEX
   HX - HEAT INDEX
  VSB - VISIBILITY
$$



USA.gov is the U.S. government's official web portal to all federal, state and local government web resources and services.